Home   Weather   Crestview   Past weeks
Flag for USA

Past Weather in Crestview, Florida, USA — Yesterday and Last 2 Weeks

Now
83 °F

Sunny.


Feels Like: 89 °F
Forecast: 92 / 75 °F
Wind: No wind

Location: Sikes Airport

Current Time: Jul 19, 2019 at 6:01:44 pm

Latest Report: Jul 19, 2019 at 4:53 pm


Visibility: 10 mi

Pressure: 30.05 "Hg

Humidity: 74%

Dew Point: 74 °F

Location of CrestviewLocation

Past Weather in Crestview — Graph

°F

Crestview Temperature Yesterday

Maximum temperature yesterday: 94 °F (at 12:53 pm)
Minimum temperature yesterday: 74 °F (at 5:53 am)
Average temperature yesterday: 84 °F

High & Low Weather Summary for the Past Weeks

 TemperatureHumidityPressure
High101 °F (Jul 6, 2:53 pm)97% (Jul 12, 10:34 pm)30.17 "Hg (Jul 12, 10:34 pm)
Low70 °F (Jul 17, 3:53 am)30% (Jul 6, 2:53 pm)29.84 "Hg (Jul 12, 3:53 am)
Average82 °F75%30.01 "Hg
* Reported Jul 4 5:01 pm — Jul 19 4:53 pm, Crestview. Weather by CustomWeather, © 2019

Note: Actual official high and low records may vary slightly from our data, if they occured in-between our weather recording intervals... More about our weather records

Advertising

Crestview Weather History for the Previous 24 Hours

Scroll right to see more
 ConditionsComfort  
Time TempWeatherWind HumidityBarometerVisibility
4:53 pm
Fri, Jul 19
83 °FSunny.No wind74%30.05 "Hg10 mi
3:53 pm82 °FSunny.3 mph72%30.06 "Hg10 mi
2:53 pm78 °FLight rain. Scattered clouds.No wind76%30.07 "Hg10 mi
1:53 pm77 °FLight rain. Scattered clouds.3 mph77%30.09 "Hg10 mi
1:24 pm74 °FScattered clouds.No wind88%30.10 "Hg10 mi
12:53 pm77 °FLight rain. Mostly cloudy.15 mph74%30.11 "Hg10 mi
11:53 am91 °FPartly sunny.7 mph60%30.10 "Hg10 mi
10:53 am89 °FSunny.3 mph53%30.11 "Hg10 mi
9:53 am88 °FBroken clouds.7 mph65%30.11 "Hg10 mi
9:26 am87 °FMore clouds than sun.6 mph67%30.12 "Hg10 mi
9:12 am87 °FBroken clouds.7 mph67%30.13 "Hg10 mi
7:53 am82 °FSunny.No wind82%30.10 "Hg10 mi
6:53 am75 °FPartly sunny.No wind90%30.08 "Hg8 mi
5:53 am73 °FSunny.No wind94%30.06 "Hg8 mi
4:53 am74 °FClear.No wind94%30.04 "Hg8 mi
3:53 am75 °FClear.No wind94%30.03 "Hg9 mi
2:53 am75 °FClear.No wind94%30.02 "Hg8 mi
1:53 am76 °FClear.No wind91%30.04 "Hg9 mi
12:53 am77 °FClear.No wind90%30.06 "Hg10 mi
11:53 pm
Thu, Jul 18
79 °FClear.No wind88%30.07 "Hg10 mi
10:53 pm79 °FClear.No wind88%30.07 "Hg10 mi
9:53 pm81 °FClear.No wind82%30.06 "Hg10 mi
8:53 pm82 °FClear.No wind79%30.05 "Hg10 mi
7:53 pm83 °FClear.6 mph77%30.03 "Hg10 mi
6:53 pm84 °FClear.No wind72%30.03 "Hg10 mi
Weather by CustomWeather, © 2019

See weather overview